Regional Weather Roundup
Issued by NWS

Home | Current Version | Previous Version | Text Only | Print | Product List | Glossary On
Versions: 1 2 3 4 5 6 7 8 9 10 11 12 13 14 15 16 17 18 19 20 21 22 23 24 25 26 27 28 29 30 31 32 33 34 35 36 37 38 39 40 41 42 43 44 45 46 47 48 49 50
000
ASUS43 KTOP 131759
RWRKS

WEATHER ROUNDUP FOR KANSAS
NATIONAL WEATHER SERVICE GOODLAND KS
1200 PM CST SAT FEB 13 2016

NOTE:  "FAIR" INDICATES FEW OR NO CLOUDS BELOW 12,000 FEET WITH NO
SIGNIFICANT WEATHER AND/OR OBSTRUCTIONS TO VISIBILITY.

KSZ001>006-013>018-027>032-041>047-131900-
NORTHWEST KANSAS

CITY           SKY/WX    TMP DP  RH WIND       PRES   REMARKS
GOODLAND       FOG       27  26  96 S17       30.14F VSB 1/2 WCI  14
6HR MIN TEMP:  25; 6HR MAX TEMP:  27;

HAYS           CLOUDY    30   9  40 SE20G25   30.30F WCI  18
HILL CITY      CLOUDY    27  17  66 SE16      30.30F WCI  15
6HR MIN TEMP:  20; 6HR MAX TEMP:  27;

RUSSELL        CLOUDY    30  12  47 SE16      30.32F WCI  19
6HR MIN TEMP:  18; 6HR MAX TEMP:  31;

$$

KSZ061>065-074>080-084>089-131900-
SOUTHWEST KANSAS

CITY           SKY/WX    TMP DP  RH WIND       PRES   REMARKS
DODGE CITY     CLOUDY    33  19  56 S22       30.24F WCI  21
6HR MIN TEMP:  19; 6HR MAX TEMP:  33;

ELKHART          N/A     54  33  45 S18         N/A
GARDEN CITY    CLOUDY    32  24  72 S21G29    30.17F WCI  20
6HR MIN TEMP:  22; 6HR MAX TEMP:  32;

GREAT BEND     MOSUNNY   30   9  40 SE14      30.33F WCI  20
LIBERAL        SUNNY     43  30  61 S24       30.17F
$$

KSZ066>073-081>083-090>101-131900-
SOUTHEAST KANSAS

CITY           SKY/WX    TMP DP  RH WIND       PRES   REMARKS
CHANUTE        SUNNY     34   4  28 E10       30.48F WCI  26
6HR MIN TEMP:  22; 6HR MAX TEMP:  34;

COFFEYVILLE    SUNNY     36   5  27 E9        30.48F
6HR MIN TEMP:  23; 6HR MAX TEMP:  37;

HUTCHINSON     CLOUDY    32   5  32 SE13      30.39F WCI  22
6HR MIN TEMP:  21; 6HR MAX TEMP:  34;

MEDICINE LODGE   N/A     34  13  41 SE12      30.35F WCI  25
NEWTON         MOSUNNY   32   7  34 SE16      30.41F WCI  21
PARSONS        MOSUNNY   35   5  28 MISG      30.49F
6HR MIN TEMP:  23; 6HR MAX TEMP:  35;

WICHITA INTL   PTSUNNY   35   1  23 SE10      30.40F WCI  27
6HR MIN TEMP:  23; 6HR MAX TEMP:  36;

WICHITA JABRA  SUNNY     33   2  26 SE14      30.40F WCI  23
6HR MIN TEMP:  20; 6HR MAX TEMP:  34;

WINFIELD       MOSUNNY   37   2  22 SE9       30.43F
6HR MIN TEMP:  23; 6HR MAX TEMP:  37;

$$

KSZ007>012-019>026-033>040-048>060-102>105-131900-
NORTHEAST KANSAS

CITY           SKY/WX    TMP DP  RH WIND       PRES   REMARKS
CONCORDIA      CLOUDY    23   2  40 SE13      30.42F WCI  11
6HR MIN TEMP:  19; 6HR MAX TEMP:  23;

EMPORIA        MOSUNNY   28   2  32 E14       30.45F WCI  17
6HR MIN TEMP:  19; 6HR MAX TEMP:  28;

LAWRENCE       CLOUDY    21   1  41 SE12      30.54F WCI   9
6HR MIN TEMP:  18; 6HR MAX TEMP:  21;

MANHATTAN      CLOUDY    25   2  37 E10       30.47F WCI  15
6HR MIN TEMP:  19; 6HR MAX TEMP:  25;

OLATHE IND     CLOUDY    20   2  45 E13       30.53F WCI   7
6HR MIN TEMP:  17; 6HR MAX TEMP:  20;

OLATHE EXE     CLOUDY    19   2  47 E9        30.52F
6HR MIN TEMP:  16; 6HR MAX TEMP:  19;

SALINA         CLOUDY    30   3  31 SE12      30.42F WCI  20
6HR MIN TEMP:  20; 6HR MAX TEMP:  30;

TOPEKA BILLARD CLOUDY    24   1  36 E13       30.52F WCI  12
6HR MIN TEMP:  20; 6HR MAX TEMP:  24;

TOPEKA FORBES  CLOUDY    24   1  36 SE10      30.50F WCI  14
6HR MIN TEMP:  20; 6HR MAX TEMP:  24;

$$



USA.gov is the U.S. government's official web portal to all federal, state and local government web resources and services.